Miscellaneous Local Product
Issued by NWS Hastings, NE

Home | Current Version | Previous Version | Graphics & Text | Print | Product List | Glossary On
Versions: 1 2 3 4 5 6 7 8 9 10 11 12 13 14 15 16 17 18 19 20 21 22 23 24 25 26 27 28 29 30 31 32 33 34 35 36 37 38 39 40 41 42 43 44 45 46 47 48 49 50
000
AXUS43 KGID 150302
MISGRI

GID CWA HOURLY WEATHER ROUNDUP
NATIONAL WEATHER SERVICE HASTINGS NE
1000 PM CDT SUN SEP 14 2014

NOTE: "FAIR" INDICATES FEW OR NO CLOUDS BELOW 12,000 FEET WITH NO
SIGNIFICANT WEATHER AND/OR OBSTRUCTIONS TO VISIBILITY.

...SOUTH CENTRAL NEBRASKA...

CITY           SKY/WX    TMP DP  RH WIND       PRES   REMARKS
GRAND ISLAND   CLOUDY    63  53  70 E6        30.07R
HASTINGS       CLOUDY    61  52  72 E8        30.04R
KEARNEY        CLOUDY    57  54  88 NE7       30.07R
ORD            CLOUDY    60  54  80 SE5       30.06S
YORK           CLOUDY    63  55  77 E6        30.07R
AURORA         CLOUDY    62  54  76 NE5       30.07R
LEXINGTON      CLOUDY    58  55  87 E9        30.04F
HOLDREGE       CLOUDY    58  53  85 NE8       30.05R
HEBRON         CLEAR     61  53  74 E6        30.02F

...NEBRASKA PANHANDLE...

CITY           SKY/WX    TMP DP  RH WIND       PRES   REMARKS
CHADRON        NOT AVBL
ALLIANCE       MOCLDY    55  46  71 NE15      30.10R
SCOTTSBLUFF    PTCLDY    55  46  71 NE21      30.09R
SIDNEY         MOCLDY    61  52  72 NE14      30.06R

...WESTERN AND NORTH CENTRAL NEBRASKA...

CITY           SKY/WX    TMP DP  RH WIND       PRES   REMARKS
VALENTINE      CLOUDY    52  42  69 NE12      30.12R
AINSWORTH      MOCLDY    53  47  81 NE6       30.09F
ONEILL         CLOUDY    59  54  82 NE7       30.10S
BROKEN BOW     CLOUDY    63  55  75 SE9       30.06R
IMPERIAL       MOCLDY    64  57  78 NE10      29.99R
NORTH PLATTE   PTCLDY    59  55  87 E12       30.02F
MCCOOK         MOCLDY    63  58  83 E10       29.98F

...EASTERN NEBRASKA...

CITY           SKY/WX    TMP DP  RH WIND       PRES   REMARKS
NORFOLK        CLOUDY    61  54  77 SE10      30.08R
SO SIOUX CITY  CLOUDY    60  53  77 SE7       30.09F
TEKAMAH        CLOUDY    62  54  74 NE3       30.09S
ALBION         CLOUDY    61  53  74 SE7       30.07F
OMAHA EPPLEY   CLOUDY    66  51  58 E9        30.09S
OFFUTT AFB     MOCLDY    63  58  84 E5        30.09R
LINCOLN        CLOUDY    67  54  63 SE9       30.08S
NEBRASKA CITY  CLOUDY    65  49  56 SE5       30.08S
BEATRICE       CLOUDY    64  55  71 E7        30.05S
FALLS CITY     MOCLDY    65  57  75 SE8       30.06F

...NORTHERN KANSAS...

CITY           SKY/WX    TMP DP  RH WIND       PRES   REMARKS
GOODLAND       MOCLDY    65  55  70 NE9       30.02R
HILL CITY      CLEAR     67  60  78 N9        29.96R
NORTON         CLEAR     63  54  72 NE10      29.98F
PHILLIPSBURG   CLEAR     64  57  77 N13       29.97R
SMITH CENTER   CLEAR     63  57  82 NE13      29.97S
BELOIT         CLEAR     68  59  73 E12       29.94F
HAYS           CLEAR     72  61  68 S17       29.94F
RUSSELL        CLEAR     73  61  65 S16G22    29.94S
CONCORDIA      CLEAR     63  60  90 E5        29.98F
SALINA         CLEAR     73  60  63 S15       29.99R
TOPEKA         CLOUDY    66  59  78 E3        30.07S



USA.gov is the U.S. government's official web portal to all federal, state and local government web resources and services.